[[{"header":{"parameterUnit":"m.s-1","parameterCategory":1,"la1":30.2991,"la2":30.254,"lo1":-89.0895,"lo2":-89.0444,"dy":0.0017,"dx":0.0017,"nx":28,"ny":28,"refTime":"2023-07-28T03:00:00:Z","depth":0,"parameterNumber":2,"parameterNumberName":"U-component_of_WINDS"},"data":[0,0,0,0,0,0,0,0,0,0,0,0,0,0,0,0,0,0,0,0,0,0,0,0,0,0,0,0,0,0,0,0,0,0,0,0,0,0,0,0,0,0,0,0,0,0,0,0,0,0,0,0,0,0,0,0,0,0,3.3194,3.3195,0,3.3288,3.3289,3.329,3.3257,3.3255,3.3253,3.3251,3.3344,3.3348,3.3353,0,0,0,0,0,0,0,0,0,0,0,0,0,3.2983,3.2987,3.3194,3.3195,3.3196,3.3287,3.3289,3.329,3.3258,3.3255,3.3253,3.325,3.3343,3.3348,3.3353,0,0,0,0,0,0,0,0,0,0,0,0,0,3.3076,3.2989,3.3194,3.3191,3.3192,3.3287,3.3289,3.329,3.3258,3.3255,3.3252,3.3249,3.3341,3.3347,3.3354,3.3456,0,0,3.3374,3.3377,0,0,0,0,0,0,0,0,3.307,3.3083,3.319,3.3191,3.3192,3.3258,3.3249,3.3346,3.3259,3.3233,3.3251,3.3248,3.3318,3.3326,3.335,3.3461,3.3465,3.3375,3.3379,3.3381,3.3383,0,0,0,0,0,0,0,3.3064,3.3079,3.3231,3.3192,3.3193,3.3184,3.3194,3.3267,3.3291,3.3235,3.3233,3.3244,3.3318,3.3344,3.3352,3.3466,3.3374,3.338,3.3384,3.3387,3.3664,3.3667,0,0,0,0,0,0,3.3058,3.3074,3.3228,3.3234,3.3123,3.319,3.3201,3.324,3.329,3.3295,3.3247,3.3243,3.3334,3.3345,3.3355,3.3477,3.3381,3.3388,3.3391,3.3661,3.3665,3.3668,0,0,0,0,0,0,3.3053,3.3072,3.3224,3.3153,3.3172,3.3197,3.3241,3.3243,3.327,3.33,3.3304,3.327,3.3332,3.3346,3.3431,3.348,3.3391,3.3397,3.3656,3.3662,3.3666,3.3723,0,0,0,0,0,0,3.3047,3.307,3.311,3.3155,3.3176,3.33,3.3244,3.3247,3.3281,3.3277,3.3322,3.3326,3.3331,3.3422,3.3438,3.3487,3.3402,3.3652,3.3659,3.3665,3.3717,3.3729,3.374,0,0,0,0,0,3.304,3.3122,3.3112,3.3131,3.3227,3.3303,3.3315,3.3319,3.3286,3.3325,3.3344,3.3325,3.3473,3.3431,3.3449,3.3501,3.3649,3.3657,3.3664,3.3711,3.3727,3.374,0,0,0,0,0,0,3.3082,3.3128,3.3118,3.3217,3.3256,3.3297,3.3347,3.3335,3.3384,3.3377,3.338,3.339,3.3478,3.3498,3.3451,3.3602,3.3556,3.3567,3.3585,3.36,3.3611,3.3604,3.3407,0,0,0,0,0,3.3103,3.3162,3.3198,3.3282,3.3303,3.3322,3.3355,3.3355,3.3395,3.3411,3.3437,3.3476,3.3531,3.3567,3.3619,3.372,3.3728,3.3765,3.3777,3.3786,3.3795,3.3848,3.3864,3.3693,3.3693,3.3693,0,0,3.3146,3.3179,3.3215,3.3291,3.3322,3.3381,3.3336,3.3401,3.3445,3.3421,3.3503,3.3523,3.3567,3.366,3.3702,3.368,3.3845,3.3796,3.3803,3.3807,3.3858,3.3874,3.3888,3.3699,3.3698,3.3697,0,0,3.3255,3.3287,3.3359,3.3391,3.3438,3.345,3.3468,3.3511,3.3523,3.3606,3.3589,3.3641,3.3736,3.3767,3.3796,3.3917,3.39,3.3934,3.3994,3.4046,3.4059,3.4071,3.4112,3.4127,3.3944,3.3944,3.3944,0,3.3303,3.3393,3.3398,3.3465,3.3498,3.348,3.3553,3.3583,3.3644,3.3667,3.3641,3.376,3.3788,3.3887,3.3917,3.3942,3.396,3.3928,3.4057,3.4069,3.408,3.4119,3.4135,3.3947,3.3947,3.3947,3.3946,0,3.3448,3.3511,3.3564,3.3624,3.3664,3.3733,3.3747,3.3786,3.3783,3.3797,3.3881,3.3915,3.3973,3.3997,3.3994,3.4096,3.408,3.4056,3.4009,3.41,3.4136,3.4152,3.3953,3.3951,3.395,3.3949,0,0,3.3585,3.3648,3.3667,3.3693,3.3744,3.3792,3.386,3.3918,3.395,3.3994,3.4049,3.4131,3.4108,3.4141,3.4142,3.4187,3.4279,3.4157,3.4158,3.4177,3.439,3.4406,3.4424,3.4269,3.4272,3.4274,3.4386,0,3.3697,3.3817,3.3823,3.3932,3.3989,3.3973,3.4032,3.4069,3.4085,3.4134,3.4151,3.4208,3.4176,3.4195,3.4239,3.4258,3.4321,3.425,3.4319,3.4321,3.4306,3.4443,3.4461,3.4564,3.44,3.4403,3.4405,0,3.3843,3.3891,3.4005,3.4047,3.4071,3.4124,3.4177,3.4226,3.4267,3.4274,3.4311,3.4305,3.4373,3.4326,3.4418,3.437,3.4399,3.4412,3.4416,3.4421,3.4367,3.4449,3.4597,3.4612,3.4428,3.4426,3.4424,0,3.3928,3.4022,3.4102,3.4126,3.4177,3.4214,3.4237,3.4275,3.4309,3.4356,3.4377,3.4431,3.4459,3.45,3.4508,3.4473,3.4601,3.4554,3.4607,3.4607,3.4633,3.4631,3.4786,3.4656,3.4655,3.4655,3.4655,0,3.4051,3.4121,3.4141,3.419,3.4268,3.4274,3.435,3.4371,3.4405,3.4456,3.4447,3.4495,3.4504,3.4554,3.4561,3.4636,3.4649,3.4656,3.4657,3.4656,3.4655,3.4673,3.4665,3.4659,3.4658,3.4657,3.4657,0,3.4158,3.4175,3.4261,3.4303,3.4315,3.437,3.4405,3.4452,3.4466,3.4532,3.4548,3.457,3.4629,3.4642,3.4711,3.4715,3.4803,3.4798,3.4789,3.4788,3.484,3.4834,3.5009,3.5032,3.4889,3.4891,3.4892,0,3.4234,3.4288,3.4336,3.437,3.4395,3.4451,3.4485,3.4494,3.453,3.4581,3.4621,3.4678,3.4724,3.4818,3.484,3.4892,3.4887,3.4945,3.4894,3.4891,3.4885,3.488,3.4885,3.4954,3.4955,3.4956,3.4957,0,3.4367,3.4372,3.4423,3.4478,3.4519,3.4562,3.4603,3.4631,3.4645,3.4686,3.4746,3.4782,3.4853,3.4909,3.4962,3.4984,3.4973,3.4974,3.4988,3.4986,3.4978,3.4981,3.4813,3.4969,3.4968,3.4967,3.4966,3.4966,3.4459,3.4506,3.4546,3.4603,3.4635,3.4673,3.4718,3.4739,3.4789,3.4848,3.485,3.4915,3.4953,3.5023,3.5049,3.5098,3.508,3.5102,3.5107,3.5112,3.5115,3.4973,3.5108,3.5108,3.5108,3.5108,3.5107,0,3.4589,3.4615,3.4667,3.4724,3.4769,3.4756,3.48,3.4838,3.4895,3.4933,3.4979,3.5047,3.5101,3.5128,3.5182,3.5216,3.5212,3.523,3.5226,3.5231,3.513,3.511,3.5232,3.5232,3.5232,3.5232,3.5232,3.5232,3.4662,3.4739,3.4749,3.4841,3.4866,3.493,3.4956,3.4991,3.502,3.5097,3.5143,3.516,3.5193,3.5249,3.5298,3.5304,3.5323,3.5343,3.5347,3.5251,3.5238,3.5226,3.5208,3.5348,3.5348,3.5443,3.5444,3.5445]},{"header":{"parameterUnit":"m.s-1","parameterCategory":1,"la1":30.2991,"la2":30.254,"lo1":-89.0895,"lo2":-89.0444,"dy":0.0017,"dx":0.0017,"nx":28,"ny":28,"refTime":"2023-07-28T03:00:00:Z","depth":0,"parameterNumber":3,"parameterNumberName":"V-component_of_WINDS"},"data":[0,0,0,0,0,0,0,0,0,0,0,0,0,0,0,0,0,0,0,0,0,0,0,0,0,0,0,0,0,0,0,0,0,0,0,0,0,0,0,0,0,0,0,0,0,0,0,0,0,0,0,0,0,0,0,0,0,0,-1.1041,-1.1041,0,-1.106,-1.106,-1.106,-1.1039,-1.1038,-1.1037,-1.1036,-1.1054,-1.1055,-1.1057,0,0,0,0,0,0,0,0,0,0,0,0,0,-1.0986,-1.0987,-1.1041,-1.1041,-1.1041,-1.106,-1.106,-1.106,-1.1039,-1.1038,-1.1037,-1.1036,-1.1054,-1.1055,-1.1057,0,0,0,0,0,0,0,0,0,0,0,0,0,-1.1007,-1.0987,-1.1041,-1.1033,-1.1032,-1.106,-1.106,-1.106,-1.1039,-1.1038,-1.1037,-1.1036,-1.1053,-1.1055,-1.1057,-1.1092,0,0,-1.1063,-1.1063,0,0,0,0,0,0,0,0,-1.1006,-1.101,-1.1034,-1.1034,-1.1033,-1.1046,-1.1047,-1.1071,-1.1039,-1.1037,-1.1036,-1.1035,-1.1052,-1.1054,-1.106,-1.1093,-1.1094,-1.1063,-1.1064,-1.1065,-1.1065,0,0,0,0,0,0,0,-1.1005,-1.1009,-1.1048,-1.1034,-1.1034,-1.1028,-1.103,-1.1051,-1.1051,-1.1037,-1.1035,-1.1038,-1.1052,-1.1059,-1.1061,-1.1094,-1.1063,-1.1064,-1.1065,-1.1066,-1.1158,-1.1159,0,0,0,0,0,0,-1.1004,-1.1007,-1.1048,-1.1049,-1.1016,-1.103,-1.1032,-1.1043,-1.1051,-1.1051,-1.1039,-1.1037,-1.1056,-1.1058,-1.1061,-1.1103,-1.1065,-1.1066,-1.1067,-1.1156,-1.1158,-1.1159,0,0,0,0,0,0,-1.1003,-1.1008,-1.1047,-1.1028,-1.1032,-1.1032,-1.1045,-1.1044,-1.1051,-1.1052,-1.1052,-1.1046,-1.1055,-1.1058,-1.1085,-1.1103,-1.1067,-1.1069,-1.1155,-1.1157,-1.1159,-1.1188,0,0,0,0,0,0,-1.1002,-1.1008,-1.1021,-1.1028,-1.1033,-1.1071,-1.1046,-1.1045,-1.1054,-1.1051,-1.1059,-1.1059,-1.1054,-1.1082,-1.1087,-1.1105,-1.107,-1.1153,-1.1156,-1.1158,-1.1185,-1.119,-1.1195,0,0,0,0,0,-1.1,-1.1028,-1.1022,-1.1027,-1.105,-1.1072,-1.1075,-1.107,-1.1056,-1.1069,-1.107,-1.1059,-1.1101,-1.1085,-1.109,-1.1109,-1.1152,-1.1155,-1.1158,-1.1183,-1.1189,-1.1195,0,0,0,0,0,0,-1.1023,-1.1029,-1.1022,-1.1054,-1.1063,-1.1068,-1.1085,-1.1077,-1.1089,-1.1086,-1.1079,-1.1081,-1.1109,-1.1112,-1.1094,-1.1144,-1.1124,-1.1128,-1.1141,-1.1148,-1.1152,-1.1151,-1.1072,0,0,0,0,0,-1.1032,-1.1049,-1.1053,-1.1081,-1.1086,-1.1085,-1.1094,-1.1089,-1.1098,-1.1101,-1.1104,-1.1113,-1.1128,-1.1138,-1.1152,-1.1186,-1.1187,-1.1201,-1.1206,-1.121,-1.1214,-1.1232,-1.1238,-1.1169,-1.1169,-1.1169,0,0,-1.105,-1.1056,-1.1067,-1.1086,-1.1092,-1.111,-1.1088,-1.1108,-1.1121,-1.1104,-1.1129,-1.1132,-1.1141,-1.1171,-1.1185,-1.1174,-1.1233,-1.1214,-1.1217,-1.1219,-1.1236,-1.1242,-1.1248,-1.1171,-1.1171,-1.117,0,0,-1.1093,-1.1099,-1.1122,-1.1129,-1.1139,-1.1139,-1.1144,-1.1152,-1.1153,-1.1178,-1.1166,-1.1182,-1.1208,-1.1215,-1.1222,-1.1268,-1.1258,-1.1273,-1.1299,-1.1317,-1.1322,-1.1327,-1.1343,-1.1349,-1.1277,-1.1277,-1.1277,0,-1.1114,-1.1141,-1.1136,-1.1156,-1.1165,-1.1152,-1.1176,-1.1183,-1.1196,-1.1203,-1.1191,-1.1224,-1.1229,-1.1261,-1.1273,-1.1279,-1.1285,-1.1272,-1.1322,-1.1327,-1.1331,-1.1346,-1.1353,-1.1278,-1.1278,-1.1278,-1.1278,0,-1.1166,-1.1185,-1.1203,-1.1218,-1.1228,-1.1251,-1.1249,-1.126,-1.1255,-1.1256,-1.1282,-1.1288,-1.1303,-1.131,-1.1305,-1.1342,-1.1335,-1.1323,-1.1302,-1.1339,-1.1354,-1.136,-1.1281,-1.128,-1.128,-1.1279,0,0,-1.1223,-1.1235,-1.1242,-1.1248,-1.1259,-1.1273,-1.1295,-1.131,-1.132,-1.1331,-1.1349,-1.1372,-1.1361,-1.1369,-1.1364,-1.138,-1.1417,-1.1366,-1.1366,-1.1375,-1.1457,-1.1466,-1.1473,-1.141,-1.1411,-1.1412,-1.1456,0,-1.1265,-1.1304,-1.13,-1.1336,-1.1354,-1.1342,-1.1361,-1.1369,-1.1371,-1.1385,-1.1386,-1.1403,-1.1387,-1.1392,-1.1407,-1.1409,-1.1433,-1.1406,-1.1426,-1.1427,-1.1424,-1.1481,-1.149,-1.1531,-1.1462,-1.1463,-1.1464,0,-1.132,-1.1333,-1.1371,-1.138,-1.1387,-1.1404,-1.1418,-1.1432,-1.1442,-1.1442,-1.1451,-1.1444,-1.1466,-1.1446,-1.1475,-1.1457,-1.1465,-1.1468,-1.1469,-1.147,-1.1447,-1.1483,-1.1544,-1.1551,-1.1473,-1.1472,-1.1471,0,-1.1357,-1.1384,-1.1411,-1.1417,-1.1427,-1.144,-1.1445,-1.1453,-1.1463,-1.1475,-1.1481,-1.1496,-1.1504,-1.1515,-1.1512,-1.1498,-1.1543,-1.1522,-1.1543,-1.1543,-1.1553,-1.1552,-1.1616,-1.1559,-1.1559,-1.1559,-1.1559,0,-1.1405,-1.1429,-1.1428,-1.1444,-1.147,-1.1466,-1.1492,-1.1495,-1.1503,-1.152,-1.151,-1.1526,-1.1521,-1.1537,-1.1535,-1.156,-1.1564,-1.1564,-1.1563,-1.1565,-1.1565,-1.157,-1.1566,-1.156,-1.156,-1.156,-1.1559,0,-1.1451,-1.1451,-1.1479,-1.1487,-1.149,-1.1509,-1.1516,-1.1531,-1.1532,-1.1553,-1.1557,-1.1559,-1.1577,-1.1575,-1.1595,-1.1594,-1.1625,-1.162,-1.1622,-1.1621,-1.1642,-1.164,-1.1711,-1.172,-1.1657,-1.1658,-1.1658,0,-1.1481,-1.1499,-1.1509,-1.152,-1.1526,-1.1543,-1.1553,-1.155,-1.1561,-1.1574,-1.1588,-1.1605,-1.1618,-1.1647,-1.1649,-1.1665,-1.1661,-1.1684,-1.1663,-1.1664,-1.1661,-1.166,-1.1661,-1.1688,-1.1689,-1.169,-1.169,0,-1.1534,-1.1534,-1.1549,-1.1565,-1.1578,-1.159,-1.16,-1.161,-1.1608,-1.162,-1.1639,-1.1649,-1.167,-1.1687,-1.1702,-1.1706,-1.1698,-1.1697,-1.1703,-1.1704,-1.1704,-1.1705,-1.1633,-1.1695,-1.1695,-1.1695,-1.1694,-1.1694,-1.1573,-1.1589,-1.1599,-1.1616,-1.1625,-1.1635,-1.165,-1.1653,-1.1669,-1.1686,-1.1683,-1.1704,-1.1713,-1.1732,-1.1738,-1.1754,-1.1746,-1.1754,-1.1756,-1.1758,-1.176,-1.1702,-1.1757,-1.1757,-1.1757,-1.1756,-1.1756,0,-1.1626,-1.1632,-1.1648,-1.1665,-1.1678,-1.167,-1.1682,-1.1694,-1.1713,-1.1722,-1.1736,-1.1757,-1.1774,-1.1778,-1.1794,-1.1806,-1.1803,-1.1811,-1.181,-1.1811,-1.1767,-1.176,-1.1813,-1.1813,-1.1813,-1.1813,-1.1813,-1.1813,-1.1655,-1.1682,-1.1682,-1.1713,-1.1719,-1.1739,-1.1747,-1.1757,-1.1764,-1.1789,-1.1803,-1.1806,-1.1814,-1.183,-1.1845,-1.1846,-1.1852,-1.1861,-1.1861,-1.182,-1.1814,-1.1808,-1.1802,-1.1863,-1.1863,-1.1903,-1.1904,-1.1904]}]]